This is the latest recevied weather packets stored in our database for station/object SR9SMR. If no packets are shown the sender has not sent any weather packets the latest 1 day(s).
| Time | Temp. | Humidity | Pressure | Rain* | Wind** | Luminosity | Snow |
|---|---|---|---|---|---|---|---|
| 1778006608 | 15.56° C | 100% | 894.8 hPa | - | 7.15 m/s, 207° | - | - |
| 1778006487 | 15° C | 100% | 894.8 hPa | - | 6.71 m/s, 205° | - | - |
| 1778006366 | 15.56° C | 100% | 894.7 hPa | - | 7.15 m/s, 207° | - | - |
| 1778006305 | 15.56° C | 100% | 894.7 hPa | - | 7.15 m/s, 211° | - | - |
| 1778006243 | 15.56° C | 100% | 894.7 hPa | - | 6.26 m/s, 211° | - | - |
| 1778006185 | 15.56° C | 100% | 894.7 hPa | - | 6.26 m/s, 211° | - | - |
| 1778006121 | 15° C | 100% | 894.8 hPa | - | 5.36 m/s, 208° | - | - |
| 1778006064 | 15° C | 100% | 894.9 hPa | - | 5.36 m/s, 207° | - | - |
| 1778006000 | 15° C | 100% | 894.8 hPa | - | 4.92 m/s, 208° | - | - |
| 1778005951 | 15.56° C | 100% | 894.9 hPa | - | 5.81 m/s, 210° | - | - |
| 1778005879 | 15.56° C | 100% | 894.7 hPa | - | 6.26 m/s, 214° | - | - |
| 1778005825 | 15.56° C | 100% | 894.8 hPa | - | 6.26 m/s, 217° | - | - |
| 1778005758 | 15.56° C | 100% | 894.8 hPa | - | 7.15 m/s, 218° | - | - |
| 1778005697 | 15.56° C | 100% | 894.8 hPa | - | 6.71 m/s, 213° | - | - |
| 1778005625 | 15.56° C | 100% | 894.8 hPa | - | 7.15 m/s, 210° | - | - |
| 1778005564 | 15.56° C | 100% | 894.8 hPa | - | 7.15 m/s, 211° | - | - |
| 1778005501 | 15.56° C | 100% | 894.8 hPa | - | 6.71 m/s, 210° | - | - |
| 1778005376 | 15.56° C | 100% | 894.8 hPa | - | 6.71 m/s, 218° | - | - |
| 1778005253 | 15.56° C | 100% | 894.8 hPa | - | 6.26 m/s, 222° | - | - |
| 1778004944 | 15.56° C | 100% | 894.8 hPa | - | 6.71 m/s, 212° | - | - |
| 1778004769 | 15.56° C | 100% | 894.7 hPa | - | 6.71 m/s, 208° | - | - |
| 1778004648 | 16.11° C | 100% | 894.8 hPa | - | 6.26 m/s, 207° | - | - |
| 1778004640 | 15.56° C | 100% | 894.8 hPa | - | 6.26 m/s, 207° | - | - |
| 1778004526 | 15.56° C | 100% | 894.7 hPa | - | 5.81 m/s, 208° | - | - |
| 1778004405 | 15.56° C | 100% | 894.7 hPa | - | 5.81 m/s, 205° | - | - |
* Rain since midnight (hover to see other rain measurements)
** Current wind speed in m/s (hover to see current wind gust speed)